Content
SEND FEEDBACK

Daily
Averages
Monthly
Summary
Switzerland

GENEVA, SWITZERLAND


Home > Europe > Switzerland
Elevation: 415 meters     Latitude: 46 15N     Longitude: 006 08E

WEATHER
 
SELECT A DAY
Number of Records: 306,145;   Date Range: 7/1/96 - 9/3/14
 
SHARE

PRINT THIS DATA

[ ← Previous Day ]
WEATHER ALMANAC - 28 AUGUST, 2013
[ Next Day → ]
[ °F ]   °C
Weather ElementAverageHighLow
Temperature17.1 °C23 °C (5:20 pm)11 °C (5:50 am)
Dewpoint12.2 °C14 °C (1:20 am)10.6 °C (5:00 am)
Humidity72.3 %100 % (1:20 am)38 % (5:00 pm)
Barometer1017.3 hPa1019 hPa (8:50 pm)1015.9 hPa (1:00 am)
Wind Speed7.6 km/h25.3 km/h (1:00 pm)
Weather ElementAverage
Visibility13 km
Wind DirectionENE (56.9 °)

Weather ElementTotal
Precipitation---
Heating Degree Days1.3 (Base 18.3)
Growing Degree Days7 (Base 10)
Averaged from 69 records on 28 August, 2013
WEATHER CONDITIONS BREAKOUT
WIND DIRECTION BREAKOUT
WEATHER BY HOUR - 28 AUGUST, 2013
[ °F ]   °C
Local TimeTemperatureDewpointHumidityBarometerVisibilityWind DirectionWind SpeedGust SpeedPrecipitationEventsConditions
12:20 AM15 °C13 °C88 %1016.3 hPa10 kmCalmMostly Cloudy
12:50 AM14 °C13 °C94 %1016.3 hPa10 kmCalmMostly Cloudy
1:00 AM14.4 °C12.8 °C87 %1015.9 hPaNNW (330°)3.7 km/h
1:20 AM14 °C14 °C100 %1016.3 hPa10 kmCalmMostly Cloudy
1:50 AM14 °C14 °C100 %1016.3 hPa10 kmVariable1.9 km/hMostly Cloudy
2:00 AM14.4 °C12.8 °C88 %1015.9 hPa30.6 kmNW (310°)1.9 km/hPartly Cloudy
2:20 AM14 °C13 °C94 %1016.3 hPa10 kmCalmMostly Cloudy
2:50 AM13 °C13 °C100 %1016.3 hPa10 kmCalmScattered Clouds
3:00 AM13.3 °C12.2 °C91 %1015.9 hPaSW (220°)1.9 km/h
3:50 AM13 °C13 °C100 %1016.3 hPa10 kmCalmScattered Clouds
4:00 AM12.8 °C11.7 °C89 %1016.3 hPaWest (260°)1.9 km/h
4:20 AM12 °C12 °C100 %1016.3 hPaVariable1.9 km/hClear
4:50 AM12 °C11 °C94 %1016.3 hPa10 kmCalmPartly Cloudy
5:00 AM11.7 °C10.6 °C89 %1016.3 hPa30.6 kmWSW (240°)1.9 km/h
5:20 AM12 °C11 °C94 %1016.3 hPa10 kmWSW (250°)3.7 km/hScattered Clouds
5:50 AM11 °C11 °C100 %1016.3 hPa10 kmVariable3.7 km/hPartly Cloudy
6:00 AM11.7 °C10.6 °C89 %1016.6 hPaWSW (250°)3.7 km/h
6:20 AM12 °C11 °C94 %1016.3 hPa10 kmWest (260°)1.9 km/hScattered Clouds
6:50 AM12 °C11 °C94 %1017.3 hPa10 kmVariable1.9 km/hMostly Cloudy
7:00 AM12.2 °C10.6 °C86 %1017.3 hPaCalm
7:20 AM12 °C11 °C94 %1017.3 hPa10 kmVariable1.9 km/hMostly Cloudy
7:50 AM12 °C11 °C94 %1017.3 hPa10 kmVariable1.9 km/hMostly Cloudy
8:00 AM12.2 °C10.6 °C87 %1017.6 hPa25.7 kmWest (270°)3.7 km/hMostly Cloudy
8:20 AM13 °C11 °C88 %1017.3 hPa10 kmCalmScattered Clouds
8:50 AM14 °C12 °C88 %1017.3 hPa10 kmCalmScattered Clouds
9:00 AM14.4 °C11.7 °C78 %1017.3 hPaSSW (210°)1.9 km/h
9:20 AM16 °C13 °C82 %1017.3 hPa10 kmCalmPartly Cloudy
9:50 AM17 °C13 °C77 %1017.3 hPa10 kmVariable3.7 km/hScattered Clouds
10:00 AM15.6 °C12.8 °C77 %1017.3 hPaEast (80°)1.9 km/h
10:20 AM18 °C14 °C77 %1017.9 hPa10 kmVariable1.9 km/hScattered Clouds
10:50 AM19 °C14 °C73 %1017.9 hPa10 kmVariable7.4 km/hScattered Clouds
11:00 AM17.8 °C12.8 °C64 %1017.3 hPa35.4 kmNE (40°)13 km/hPartly Cloudy
11:20 AM19 °C13 °C68 %1017.9 hPa10 kmNNE (30°)13 km/hScattered Clouds
11:50 AM20 °C13 °C64 %1017.9 hPa10 kmEast (80°)9.3 km/hPartly Cloudy
12:00 PM18.3 °C11.7 °C55 %1017.3 hPaNNE (20°)9.3 km/h
12:20 PM20 °C13 °C64 %1017.9 hPa10 kmNNE (20°)9.3 km/hPartly Cloudy
12:50 PM21 °C13 °C60 %1017.9 hPa10 kmNNE (30°)13 km/hScattered Clouds
1:00 PM21.1 °C11.7 °C43 %1016.6 hPaNE (50°)25.3 km/h
1:20 PM21 °C12 °C56 %1017.9 hPa10 kmENE (70°)14.8 km/hScattered Clouds
1:50 PM21 °C12 °C56 %1017.9 hPa10 kmENE (60°)14.8 km/hScattered Clouds
2:00 PM21.7 °C11.7 °C41 %1016.3 hPa30.6 kmNE (40°)13 km/hMostly Cloudy
2:20 PM22 °C12 °C53 %1017.9 hPa10 kmNE (50°)16.7 km/hScattered Clouds
2:50 PM22 °C12 °C53 %1017.3 hPa10 kmNE (40°)18.5 km/hScattered Clouds
3:00 PM20.6 °C11.7 °C47 %1016.3 hPaNE (50°)20.4 km/h
3:20 PM21 °C12 °C56 %1017.9 hPa10 kmNE (40°)13 km/hMostly Cloudy
3:50 PM22 °C12 °C53 %1017.3 hPa10 kmNorth (10°)9.3 km/hMostly Cloudy
4:00 PM21.7 °C11.7 °C43 %1016.3 hPaNNE (30°)9.3 km/h
4:20 PM22 °C12 °C53 %1017.3 hPa10 kmNNE (30°)11.1 km/hMostly Cloudy
4:50 PM22 °C12 °C53 %1017.9 hPa10 kmNE (40°)11.1 km/hMostly Cloudy
5:00 PM22.2 °C11.1 °C38 %1016.3 hPa30.6 kmNE (40°)14.8 km/hScattered Clouds
5:20 PM23 °C12 °C50 %1017.3 hPa10 kmNorth (10°)13 km/hScattered Clouds
5:50 PM22 °C12 °C53 %1017.3 hPa10 kmNNE (20°)7.4 km/hScattered Clouds
6:00 PM21.1 °C11.7 °C45 %1016.3 hPaNNE (20°)9.3 km/h
6:20 PM21 °C13 °C60 %1017.9 hPa10 kmNNE (30°)11.1 km/hScattered Clouds
6:50 PM21 °C13 °C60 %1017.9 hPa10 kmNE (40°)14.8 km/hScattered Clouds
7:00 PM20 °C11.1 °C45 %1016.6 hPaNNE (30°)13 km/h
7:20 PM20 °C11 °C56 %1017.9 hPa10 kmNNE (20°)9.3 km/hScattered Clouds
7:50 PM19 °C12 °C64 %1017.9 hPa10 kmNNE (30°)9.3 km/hScattered Clouds
8:00 PM18.9 °C11.7 °C53 %1017.3 hPa40.2 kmNNE (30°)13 km/hScattered Clouds
8:20 PM19 °C12 °C64 %1017.9 hPa10 kmNE (40°)11.1 km/hPartly Cloudy
8:50 PM19 °C12 °C64 %1019 hPa10 kmNNE (20°)9.3 km/hPartly Cloudy
9:00 PM18.3 °C11.7 °C55 %1017.9 hPaNNE (20°)11.1 km/h
9:20 PM18 °C12 °C68 %1019 hPa10 kmNNE (30°)13 km/hPartly Cloudy
9:50 PM18 °C13 °C73 %1019 hPa10 kmNNE (20°)11.1 km/hPartly Cloudy
10:00 PM17.2 °C12.2 °C65 %1018.3 hPaNorth (10°)11.1 km/h
10:20 PM17 °C13 °C77 %1019 hPa10 kmNorth (10°)11.1 km/hPartly Cloudy
10:50 PM18 °C13 °C73 %1019 hPaNNE (30°)13 km/hClear
11:20 PM17 °C13 °C77 %1019 hPaNorth (10°)9.3 km/hClear
11:50 PM16 °C13 °C82 %1019 hPaVariable3.7 km/hClear
Hourly data recorded from LSGG, located 0 kilometers away from Geneva, Switzerland







STORIES FROM OUR PARTNERS